Weather History for Roatan, Honduras

Change the Weather History Date:

Saturday, January 18, 2014

  Actual Average Record
Temperature  
Mean Temperature 71 °F -  
Max Temperature 76 °F 82 °F 87 °F (1999)
Min Temperature 66 °F 73 °F 66 °F (2014)
Cooling Degree Days 6    
Growing Degree Days 21 (Base 50)    
Moisture  
Dew Point 68 °F    
Average Humidity 84    
Maximum Humidity 88    
Minimum Humidity 78    
Precipitation  
Precipitation 0.35 in - - ()
Sea Level Pressure  
Sea Level Pressure 30.10 in    
Wind  
Wind Speed 6 mph ()    
Max Wind Speed 18 mph    
Max Gust Speed -    
Visibility 2.4 miles    
Events Rain    
Averages and records for this station are not official NWS values.
T = Trace of Precipitation, MM = Missing Value Source: Averaged Metar Reports

Daily Weather History Graph

Daily Weather History Graph

Search for Another Location

Airport:

Trip Planner

Search our weather history database for the weather conditions in past years. The results will help you decide how hot, cold, wet, or windy it might be!

Date:

Astronomy

Jan. 18, 2014 Rise Set
Actual Time 6:17 AM CST 5:35 PM CST
Civil Twilight 5:54 AM CST 5:58 PM CST
Nautical Twilight 5:28 AM CST 6:24 PM CST
Astronomical Twilight 5:02 AM CST 6:50 PM CST
Moon 7:46 PM CST (1/18) 7:44 AM CST (1/18)
Length of Visible Light 12h 03m
Length of Day
11h 17m
Waning Gibbous, 94% of the Moon is Illuminated
Jan 18
Waning Gibbous
Jan 23
Last Quarter
Jan 30
New
Feb 6
First Quarter
Feb 14
Full

Hourly Weather History & Observations

Time (CST) Temp. Dew Point Humidity Pressure Visibility Wind Dir Wind Speed Gust Speed Precip Events Conditions
6:00 AM 73 °F 68 °F 79% 30.08 in 5 mi NNE 6.9 mph - -   Overcast
6:00 AM 73.4 °F 68.0 °F 83% 30.06 in 5.0 mi NNE 6.9 mph - N/A   Overcast
7:00 AM 73.4 °F 66.2 °F 78% 30.09 in 1.2 mi NNE 18.4 mph - N/A   Drizzle
8:00 AM 73.4 °F 66.2 °F 78% 30.12 in 3.7 mi NE 3.5 mph - N/A   Drizzle
9:00 AM 72 °F 67 °F 81% 30.17 in 2 mi ESE 9.2 mph - - Rain Heavy Drizzle
9:00 AM 73.4 °F 68.0 °F 83% 30.15 in 1.9 mi ESE 9.2 mph - N/A   Heavy Drizzle
10:00 AM 73.4 °F 68.0 °F 83% 30.15 in 2.5 mi East 5.8 mph - N/A   Light Drizzle
11:00 AM 73.4 °F 68.0 °F 83% 30.15 in 2.5 mi ESE 4.6 mph - N/A   Light Drizzle
12:00 PM 73 °F 68 °F 81% 30.14 in 4 mi WSW 4.6 mph - - Rain Light Drizzle
12:00 PM 73.4 °F 68.0 °F 83% 30.12 in 4.3 mi WSW 4.6 mph - N/A   Light Drizzle
1:00 PM 73.4 °F 68.0 °F 83% 30.09 in 1.2 mi NNW 11.5 mph - N/A Rain Rain
2:00 PM 71.6 °F 68.0 °F 88% 30.06 in 1.9 mi East 4.6 mph - N/A   Heavy Drizzle
3:00 PM 72 °F 68 °F 85% 30.07 in 1 mi East 9.2 mph - - Rain Heavy Drizzle
3:00 PM 71.6 °F 68.0 °F 88% 30.06 in 1.2 mi East 9.2 mph - N/A   Heavy Drizzle
4:00 PM 71.6 °F 66.2 °F 83% 30.06 in 2.5 mi SW 2.3 mph - N/A   Light Drizzle
5:00 PM 71.6 °F 68.0 °F 88% 30.06 in 1.2 mi North 2.3 mph - N/A   Heavy Drizzle
6:00 PM 72 °F 69 °F 85% 30.09 in 1 mi South 4.6 mph - - Rain Light Rain
6:00 PM 71.6 °F 68.0 °F 88% 30.09 in 1.2 mi South 4.6 mph - N/A Rain Light Rain
7:00 PM 71.6 °F 68.0 °F 88% 30.09 in 1.9 mi SSE 3.5 mph - N/A   Drizzle
8:00 PM 71.6 °F 68.0 °F 88% 30.12 in 2.5 mi Calm Calm - N/A   Drizzle